Weather History for Granite Falls, MN

Change the Weather History Date:

Sunday, November 11, 2012

  Actual Average (KMVE) Record (KMVE)
Temperature  
Mean Temperature 28 °F -  
Max Temperature 37 °F 39 °F 71 °F (1954)
Min Temperature 18 °F 23 °F -4 °F (1986)
Degree Days  
Heating Degree Days 38    
Moisture  
Dew Point 19 °F    
Average Humidity 76    
Maximum Humidity 90    
Minimum Humidity 67    
Precipitation  
Precipitation 0.00 in - - ()
Sea Level Pressure  
Sea Level Pressure 29.85 in    
Wind  
Wind Speed 21 mph (West)    
Max Wind Speed 26 mph    
Max Gust Speed 32 mph    
Visibility 10 miles    
Events Snow    
Averages and records for this station are not official NWS values.
T = Trace of Precipitation, MM = Missing Value Source: NWS Daily Summary

Daily Weather History Graph

Daily Weather History Graph

Search for Another Location

Airport:

Trip Planner

Search our weather history database for the weather conditions in past years. The results will help you decide how hot, cold, wet, or windy it might be!

Date:

Astronomy

Nov. 11, 2012 Rise Set
Actual Time 7:14 AM CST 4:57 PM CST
Civil Twilight 6:43 AM CST 5:28 PM CST
Nautical Twilight 6:07 AM CST 6:04 PM CST
Astronomical Twilight 5:33 AM CST 6:38 PM CST
Moon 4:24 AM CST (11/11) 3:25 PM CST (11/11)
Length of Visible Light 10h 45m
Length of Day
9h 43m
Waning Crescent, 7% of the Moon is Illuminated
Nov 11
Waning Crescent
Nov 13
New
Nov 20
First Quarter
Nov 28
Full
Dec 6
Last Quarter

Hourly Weather History & Observations

Time (CST) Temp. Windchill Dew Point Humidity Pressure Visibility Wind Dir Wind Speed Gust Speed Precip Events Conditions
12:18 AM 37.9 °F 27.9 °F 35.2 °F 90% 29.64 in 10.0 mi West 19.6 mph 26.5 mph N/A   Overcast
12:49 AM 36.1 °F 25.0 °F 32.9 °F 88% 29.64 in 10.0 mi WNW 21.9 mph 29.9 mph N/A   Overcast
1:01 AM 35.6 °F 24.2 °F 32.4 °F 88% 29.65 in 10.0 mi West 21.9 mph 27.6 mph N/A   Overcast
1:21 AM 35.6 °F 25.2 °F 32.2 °F 87% 29.64 in 10.0 mi West 18.4 mph 26.5 mph N/A   Overcast
1:39 AM 35.1 °F 24.1 °F 32.2 °F 89% 29.65 in 7.0 mi West 19.6 mph 23.0 mph N/A   Overcast
1:54 AM 34.7 °F 23.4 °F 32.0 °F 90% 29.67 in 10.0 mi West 20.7 mph 26.5 mph N/A   Overcast
2:19 AM 33.3 °F 21.8 °F 30.2 °F 89% 29.67 in 10.0 mi West 19.6 mph 24.2 mph N/A   Overcast
2:46 AM 32.2 °F 19.4 °F 28.4 °F 86% 29.69 in 10.0 mi West 23.0 mph 26.5 mph N/A   Overcast
3:07 AM 31.6 °F 19.7 °F 27.7 °F 85% 29.71 in 10.0 mi West 19.6 mph 25.3 mph N/A   Overcast
3:21 AM 31.1 °F 18.9 °F 27.0 °F 85% 29.71 in 10.0 mi West 19.6 mph 26.5 mph N/A   Overcast
3:45 AM 30.2 °F 16.8 °F 24.8 °F 80% 29.73 in 10.0 mi West 23.0 mph 29.9 mph N/A   Overcast
3:54 AM 30.9 °F 17.2 °F 25.7 °F 81% 29.73 in 10.0 mi West 25.3 mph 31.1 mph N/A   Overcast
3:58 AM 30.7 °F 17.8 °F 25.3 °F 80% 29.74 in 10.0 mi West 21.9 mph 31.1 mph N/A   Overcast
4:29 AM 30.2 °F 17.4 °F 24.8 °F 80% 29.74 in 10.0 mi West 20.7 mph 27.6 mph N/A   Overcast
4:47 AM 30.0 °F 16.9 °F 25.3 °F 83% 29.76 in 10.0 mi West 21.9 mph 27.6 mph N/A   Overcast
5:06 AM 29.7 °F 15.2 °F 24.6 °F 81% 29.77 in 10.0 mi West 26.5 mph 29.9 mph N/A   Overcast
5:25 AM 29.3 °F 15.0 °F 24.3 °F 81% 29.77 in 10.0 mi West 25.3 mph - N/A   Overcast
6:05 AM 28.4 °F 14.7 °F 22.8 °F 80% 29.80 in 10.0 mi West 21.9 mph 28.8 mph N/A   Overcast
6:20 AM 28.2 °F 14.8 °F 22.8 °F 80% 29.79 in 10.0 mi West 20.7 mph - N/A   Overcast
6:37 AM 28.0 °F 13.9 °F 22.1 °F 78% 29.79 in 10.0 mi WNW 23.0 mph 27.6 mph N/A   Overcast
7:00 AM 27.3 °F 13.0 °F 21.6 °F 79% 29.81 in 10.0 mi West 23.0 mph 27.6 mph N/A   Overcast
7:22 AM 26.6 °F 11.7 °F 20.8 °F 79% 29.80 in 10.0 mi WNW 24.2 mph 31.1 mph N/A   Overcast
7:50 AM 26.2 °F 13.0 °F 20.3 °F 78% 29.82 in 10.0 mi WNW 18.4 mph - N/A   Overcast
8:10 AM 26.1 °F 12.7 °F 19.9 °F 78% 29.84 in 10.0 mi WNW 18.4 mph 21.9 mph N/A   Mostly Cloudy
8:20 AM 26.1 °F 13.6 °F 19.9 °F 78% 29.84 in 10.0 mi WNW 16.1 mph 21.9 mph N/A   Overcast
8:45 AM 26.2 °F 13.0 °F 20.7 °F 79% 29.85 in 10.0 mi West 18.4 mph 23.0 mph N/A   Overcast
8:59 AM 25.7 °F 12.3 °F 20.3 °F 80% 29.86 in 7.0 mi West 18.4 mph - N/A   Overcast
9:51 AM 25.2 °F 11.2 °F 18.9 °F 77% 29.86 in 10.0 mi West 19.6 mph 25.3 mph N/A   Overcast
10:11 AM 25.2 °F 11.6 °F 19.0 °F 78% 29.87 in 10.0 mi West 18.4 mph - N/A   Overcast
10:31 AM 25.0 °F 11.7 °F 19.0 °F 78% 29.86 in 10.0 mi West 17.3 mph - N/A   Overcast
10:51 AM 24.8 °F 10.7 °F 18.5 °F 77% 29.86 in 10.0 mi West 19.6 mph - N/A   Overcast
11:11 AM 25.0 °F 10.9 °F 18.3 °F 76% 29.87 in 10.0 mi West 19.6 mph 24.2 mph N/A   Mostly Cloudy
11:31 AM 25.7 °F 11.5 °F 18.3 °F 74% 29.87 in 10.0 mi West 20.7 mph 28.8 mph N/A   Mostly Cloudy
11:51 AM 25.7 °F 12.3 °F 18.1 °F 73% 29.86 in 10.0 mi West 18.4 mph 23.0 mph N/A   Scattered Clouds
12:11 PM 26.1 °F 12.3 °F 18.0 °F 71% 29.86 in 10.0 mi West 19.6 mph 26.5 mph N/A   Mostly Cloudy
12:31 PM 26.1 °F 12.3 °F 17.6 °F 70% 29.86 in 10.0 mi West 19.6 mph - N/A   Scattered Clouds
12:51 PM 26.4 °F 12.1 °F 18.0 °F 70% 29.86 in 10.0 mi West 21.9 mph 27.6 mph N/A   Scattered Clouds
1:11 PM 26.6 °F 12.4 °F 18.7 °F 72% 29.86 in 10.0 mi West 21.9 mph 27.6 mph N/A   Scattered Clouds
1:31 PM 27.7 °F 13.5 °F 18.9 °F 69% 29.86 in 10.0 mi West 23.0 mph 27.6 mph N/A   Scattered Clouds
1:51 PM 27.1 °F 12.7 °F 18.3 °F 69% 29.86 in 10.0 mi West 23.0 mph 27.6 mph N/A   Scattered Clouds
2:11 PM 25.7 °F 11.9 °F 17.1 °F 70% 29.86 in 10.0 mi West 19.6 mph 26.5 mph N/A   Scattered Clouds
2:31 PM 25.7 °F 10.5 °F 16.5 °F 68% 29.87 in 10.0 mi West 24.2 mph 31.1 mph N/A   Scattered Clouds
2:51 PM 25.9 °F 11.7 °F 16.5 °F 68% 29.87 in 10.0 mi West 20.7 mph 28.8 mph N/A   Scattered Clouds
3:11 PM 26.1 °F 12.0 °F 16.9 °F 68% 29.87 in 10.0 mi West 20.7 mph 27.6 mph N/A   Mostly Cloudy
3:31 PM 26.2 °F 11.5 °F 16.7 °F 67% 29.89 in 10.0 mi West 23.0 mph 27.6 mph N/A   Mostly Cloudy
3:51 PM 25.2 °F 10.1 °F 15.6 °F 67% 29.89 in 10.0 mi West 23.0 mph 28.8 mph N/A   Scattered Clouds
4:11 PM 24.6 °F 9.4 °F 15.3 °F 68% 29.90 in 10.0 mi West 23.0 mph 27.6 mph N/A   Scattered Clouds
4:31 PM 23.7 °F 7.5 °F 14.2 °F 67% 29.91 in 10.0 mi West 25.3 mph - N/A   Scattered Clouds
4:51 PM 22.8 °F 6.7 °F 13.6 °F 68% 29.91 in 10.0 mi West 24.2 mph 31.1 mph N/A   Clear
5:11 PM 22.1 °F 6.0 °F 13.5 °F 69% 29.92 in 10.0 mi West 23.0 mph 28.8 mph N/A   Clear
5:30 PM 21.6 °F 6.1 °F 13.8 °F 72% 29.93 in 10.0 mi West 20.7 mph 26.5 mph N/A   Clear
5:51 PM 21.0 °F 5.0 °F 13.5 °F 73% 29.94 in 10.0 mi West 21.9 mph 27.6 mph N/A   Clear
6:11 PM 20.8 °F 5.1 °F 13.3 °F 73% 29.95 in 10.0 mi West 20.7 mph 29.9 mph N/A   Mostly Cloudy
6:30 PM 20.1 °F 3.1 °F 12.7 °F 73% 29.95 in 10.0 mi West 24.2 mph 28.8 mph N/A   Scattered Clouds
6:51 PM 19.9 °F 3.5 °F 12.9 °F 74% 29.96 in 10.0 mi West 21.9 mph 26.5 mph N/A   Clear
7:11 PM 19.9 °F 3.5 °F 12.2 °F 72% 29.96 in 10.0 mi West 21.9 mph 26.5 mph N/A   Clear
7:30 PM 20.1 °F 2.7 °F 12.4 °F 72% 29.96 in 10.0 mi West 25.3 mph 32.2 mph N/A   Scattered Clouds
7:51 PM 21.0 °F 3.9 °F 12.4 °F 69% 29.96 in 10.0 mi West 25.3 mph 32.2 mph N/A   Mostly Cloudy
8:11 PM 21.0 °F 6.2 °F 12.6 °F 70% 29.97 in 10.0 mi West 18.4 mph 26.5 mph N/A   Overcast
8:31 PM 21.0 °F 5.0 °F 13.3 °F 72% 29.97 in 10.0 mi West 21.9 mph 26.5 mph N/A   Overcast
8:51 PM 21.0 °F 6.2 °F 12.6 °F 70% 29.98 in 10.0 mi West 18.4 mph - N/A   Overcast
9:11 PM 21.0 °F 7.1 °F 12.4 °F 69% 29.98 in 10.0 mi WSW 16.1 mph 23.0 mph N/A   Overcast
9:30 PM 21.2 °F 8.3 °F 13.6 °F 73% 29.98 in 10.0 mi WSW 13.8 mph - N/A Snow Light Snow
9:51 PM 21.2 °F 4.5 °F 12.9 °F 70% 29.98 in 10.0 mi WSW 24.2 mph 28.8 mph N/A   Overcast
10:11 PM 20.1 °F 4.2 °F 10.9 °F 68% 29.98 in 10.0 mi WSW 20.7 mph 24.2 mph N/A   Mostly Cloudy
10:30 PM 19.2 °F 5.8 °F 11.1 °F 71% 29.98 in 10.0 mi WSW 13.8 mph - N/A   Scattered Clouds
10:51 PM 18.9 °F 4.3 °F 10.9 °F 71% 29.98 in 10.0 mi WSW 16.1 mph 19.6 mph N/A   Clear
11:11 PM 18.5 °F 4.9 °F 11.1 °F 73% 29.98 in 10.0 mi WSW 13.8 mph - N/A   Clear
11:31 PM 18.3 °F 5.9 °F 11.5 °F 75% 29.98 in 10.0 mi WSW 11.5 mph - N/A   Clear
11:51 PM 18.1 °F 5.0 °F 12.0 °F 77% 29.98 in 10.0 mi WSW 12.7 mph - N/A   Clear